Location: Tierra del Sol
(32.6128°N, 116.3319°W)
Time: 13:51:02
(UTC-07:00)

Daily predictions for brighter satellites

Satellite Brightness Start Highest point End
(mag) Time Altitude Azimuth Time Altitude Azimuth Time Altitude Azimuth
Cosmos 1939 Rocket 4.4 19:46:53 10° ESE 19:49:29 17° ENE 19:52:06 10° NNE
Cosmos 1844 Rocket 2.7 19:47:10 10° NNW 19:52:50 70° ENE 19:58:26 10° SSE
ATLAS 2AS CENTAUR R/B 3.5 19:47:23 10° NNW 19:54:41 41° NE 20:01:24 10° ESE
Cosmos 2333 Rocket 2.2 19:49:06 10° SSW 19:54:46 90° ESE 20:00:26 10° NNE
CZ-2D R/B 3.6 19:51:18 10° SSE 19:54:55 46° ENE 19:58:35 10° N
Timation 1 Rocket 4.5 19:49:41 10° NNW 19:55:35 61° ENE 20:01:28 10° SSE
Cosmos 1892 3.1 19:53:44 10° N 19:57:27 43° E 20:01:07 10° SSE
COSMOS 2428 4.0 19:54:26 10° SW 19:59:54 46° WNW 20:05:24 10° N
Cosmos 2219 Rocket 2.7 19:55:12 10° SSW 20:00:49 67° WNW 20:06:28 10° NNE
Nadezhda 3 Rocket 4.1 19:54:35 10° N 20:00:50 59° E 20:07:05 10° SSE
SPOT 3 Rocket 4.4 19:55:52 10° S 20:00:54 54° W 20:05:58 10° NNW
Cosmos 2228 Rocket 3.8 19:58:18 10° SSE 20:02:10 31° E 20:06:03 10° NNE
Thor Agena Rocket 3.7 19:57:12 10° NNE 20:02:23 57° ESE 20:07:34 10° S
Cosmos 1328 Rocket 3.8 19:58:27 10° SSE 20:02:41 50° E 20:06:59 10° NNE
Cosmos 1805 Rocket 3.8 20:00:22 10° N 20:04:41 71° W 20:08:58 10° S
Cosmos 2237 Rocket 2.2 20:00:30 10° S 20:05:59 61° ESE 20:11:32 10° NNE
Cosmos 1844 3.7 20:00:44 10° NNW 20:06:27 70° ENE 20:12:11 10° SSE
Genesis I 4.2 20:02:52 10° N 20:06:33 32° ENE 20:09:23 15° ESE
Meteor 1-27 4.2 20:01:53 10° S 20:07:33 66° E 20:13:10 10° NNE
Cosmos 1340 4.3 20:06:58 10° SSW 20:10:31 39° W 20:14:06 10° N
SL-24 R/B - RUBIN 2 3.7 20:06:13 10° NNW 20:10:33 74° WSW 20:14:59 10° SSE
Cosmos 2278 Rocket 2.9 20:15:37 10° N 20:20:52 37° ENE 20:24:26 18° ESE
Haruka 3.7 20:12:24 10° W 20:21:33 50° SSW 20:24:11 19° SE
BREEZE-M DEB (TANK) 3.0 20:17:32 10° NW 20:22:21 80° NE 20:24:38 21° ESE
Cosmos 1470 Rocket 4.0 20:19:14 10° N 20:23:25 40° E 20:26:21 18° SE
Hubble Space Telescope 3.0 20:22:45 10° S 20:23:24 11° SSE 20:23:24 11° SSE
ASTRO E2 2.8 20:22:12 10° WSW 20:26:08 56° SSE 20:28:23 23° E
Resurs 01 Rocket 1.9 20:26:38 17° SE 20:29:49 50° ENE 20:34:07 10° N
Cosmos 1825 3.1 20:27:12 10° NNE 20:30:32 28° E 20:31:18 26° ESE
Cosmos 220 Rocket 3.9 20:31:59 10° NNW 20:36:19 86° ENE 20:39:15 20° SSE
Cosmos 1959 Rocket 4.5 20:33:35 10° S 20:39:36 58° E 20:45:34 10° NNE
Cosmos 1151 Rocket 2.9 20:37:06 10° S 20:41:20 85° W 20:45:37 10° N
Cosmos 1371 Rocket 4.0 20:44:00 10° SSW 20:49:18 88° WNW 20:54:40 10° NNE
Cosmos 1933 Rocket 3.4 20:47:26 10° N 20:51:48 74° E 20:53:43 32° SSE
ARGOS 4.2 20:51:59 26° E 20:52:47 27° ENE 20:57:12 10° NNE
Envisat 4.4 20:49:57 10° SSW 20:54:37 37° W 20:59:19 10° NNW
H-2A R/B 3.4 20:55:13 20° ENE 20:55:13 20° ENE 20:58:47 10° NNE
ATLAS 2A CENTAUR R/B 4.1 20:53:52 10° WSW 20:56:06 14° SW 20:56:36 13° SSW
Meteor 2-10 Rocket 3.7 20:51:27 13° S 20:56:29 63° E 21:02:13 10° NNE
USA 186 3.1 20:56:57 23° WSW 20:57:11 23° W 20:59:06 10° NW
SL-16 R/B 2.1 20:52:11 10° S 20:57:46 66° ESE 21:03:23 10° NNE
Resurs 1-3 3.8 20:55:04 21° S 20:57:54 70° WSW 21:02:17 10° NNW
Cosmos 1408 2.5 20:55:39 10° N 20:59:20 90° WNW 21:00:08 53° S
OAO 2 Rocket 3.9 20:55:59 10° W 21:00:57 45° SSW 21:02:25 35° SSE
Cosmos 2218 Rocket 4.0 20:55:55 10° S 21:02:15 89° W 21:08:41 10° N
SL-08 R/B 4.4 21:01:23 10° S 21:07:40 80° E 21:14:05 10° N
ERS-2 4.3 21:04:57 10° SSW 21:07:57 24° W 21:10:58 10° NW
Cosmos 2056 Rocket 3.8 21:05:07 10° SSW 21:10:31 71° WNW 21:15:56 10° NNE
Cosmos 2366 rocket 4.0 21:04:32 10° S 21:10:44 84° W 21:17:03 10° N
Cosmos 1452 Rocket 4.3 21:12:39 34° ENE 21:12:39 34° ENE 21:16:12 10° NNE
YAOGAN 6 4.4 21:09:42 15° SSW 21:11:58 28° W 21:15:10 10° NW
BREEZE-M DEB (TANK) 4.5 21:07:57 10° SSW 21:12:03 44° ESE 21:25:07 10° ENE
OAO 3 Copernicus 4.3 21:07:38 10° W 21:12:40 75° N 21:14:16 43° ENE
Cosmos 1869 4.2 21:15:06 18° SSW 21:17:53 47° W 21:21:46 10° N
Cosmos 1441 Rocket 4.5 21:26:48 33° N 21:26:48 33° N 21:28:57 10° N
Cosmos 2098 Rocket 3.8 21:22:56 16° SSW 21:26:32 50° W 21:30:21 10° N
Sakura Rocket 4.1 21:26:17 10° W 21:29:33 34° SW 21:29:33 34° SW
Cosmos 1339 Rocket 4.4 21:24:55 10° N 21:31:03 87° W 21:32:57 48° S
MetOp-A 4.1 21:31:54 66° E 21:31:58 66° ENE 21:37:16 10° N
Cosmos 1190 Rocket 3.8 21:28:40 10° NNW 21:33:57 77° ENE 21:33:57 77° ENE
ATLAS 2A CENTAUR R/B 3.8 21:13:36 10° WSW 21:33:59 60° S 21:37:34 44° ESE
Cosmos 2297 3.7 21:30:16 10° NNW 21:35:55 63° ENE 21:35:56 63° ENE
Cosmos 2344 3.4 21:30:05 10° SSW 21:37:51 84° ESE 21:45:48 10° NNE
Cosmos 2369 Rocket 4.4 21:35:56 10° NNE 21:37:17 12° NE 21:37:17 12° NE
CZ-4C R/B 3.1 21:46:06 33° NE 21:46:06 33° NE 21:49:15 10° NNE
ATLAS 2AS CENTAUR R/B 3.9 21:38:40 10° NW 21:45:31 37° WSW 21:48:52 25° SSW
Gblst 52 Del rocket 4.2 21:43:36 10° SW 21:49:14 72° NW 21:51:19 38° NNE
ATLAS 5 CENTAUR R/B 4.4 21:55:17 10° N 21:58:46 16° NE 21:58:46 16° NE
Cosmos 2278 Rocket 4.0 22:00:13 10° NW 22:04:39 24° WSW 22:06:19 21° SW
Resurs 01 Rocket 4.5 22:05:18 10° WSW 22:06:30 11° W 22:07:42 10° WNW
ERS-1 Rocket 3.8 22:09:58 47° NNW 22:09:58 47° NNW 22:13:32 10° NNW
Terra 4.1 22:14:40 16° NNE 22:14:40 16° NNE 22:15:52 10° NNE
NOSS 3-4 (A) 3.8 22:09:16 10° NNW 22:16:30 76° WSW 22:16:42 75° SW
NOSS 3-4 (C) 3.8 22:09:22 10° NNW 22:16:37 76° WSW 22:16:47 76° SW
USA 267 3.9 22:14:51 10° NE 22:29:33 - SW 22:19:04 44° NE
H-2A R/B 3.6 22:35:50 29° WNW 22:35:50 29° WNW 22:38:55 10° NNW
Cosmos 1943 Rocket 4.2 22:38:13 10° N 22:40:15 20° NNE 22:40:15 20° NNE
Lacrosse 5 4.2 22:43:33 10° NNW 22:45:20 18° N 22:45:20 18° N
Cosmos 2369 Rocket 4.2 23:16:58 10° NNW 23:19:04 24° NNW 23:19:04 24° NNW
ATLAS 5 CENTAUR R/B 4.3 23:37:59 10° NNW 23:40:19 25° NNW 23:40:19 25° NNW
